Reflectivity
-20 -20 -20 -20 -20 -20 -20 -20 -20 -20 -20 -20 -20 -20 -20 -20 -20 -20 -20 -20 -20 -20 -7 -20 -8 -20 -20 -20 -20 -20 -20 -20 -20 -20 -20 -20 -20 -20 -20 -20 -20 -20 -20
-20 -20 -20 -20 -20 -20 -20 -20 -20 -20 -20 -20 -20 -20 -20 -20 -20 -20 -20 -20 -20 -20 -20 -20 -20 -20 -20 -20 -20 -20 -20 -20 -20 -20 -20 -20 -20 -20 -20 -20 -20 -20 -20
-5 -20 -20 -20 -20 -20 -20 -20 -20 -20 -20 -20 -20 -20 -20 -20 -20 -20 -20 -20 -20 -20 -20 -20 -20 -20 -20 -20 -20 -20 -20 -20 -20 -20 -20 -20 -20 -20 -20 -20 -20 -20 -20
-14 4 -20 -20 -20 -20 -20 -20 -20 -20 -20 -20 -20 -20 -20 -20 -20 -20 -20 -20 -20 -20 -20 -20 -20 -20 -20 -20 -20 -20 -20 -20 -20 -20 -20 -20 -20 -20 -20 -20 -20 -20 -20
-20 -20 3 5 -19 -10 -20 -20 -20 -20 -20 -20 -20 -20 -20 -20 -20 -20 -20 -20 -20 -20 -20 -20 -20 -20 -20 -20 -20 -20 -20 -20 -20 -20 -20 -20 -20 -20 -20 -20 -20 -20 -20
-20 -20 -20 -8 5 -7 -20 -20 -20 -20 -20 -20 -20 -20 -20 -20 -20 -20 -20 -20 -20 -20 -20 -20 -20 -20 -20 -20 -20 -20 -20 -20 -20 -20 -20 -20 -20 -20 -20 -20 -20 -20 -20
-20 -20 -20 -20 -20 -19 -8 -14 -20 -20 -20 -20 -20 -20 -20 -20 -20 -20 -20 -20 -20 -20 -20 -20 -20 -20 -20 -20 -20 -20 -20 -20 -20 -20 -20 -20 -20 -20 -20 -20 -20 -20 -20
-20 -20 -20 -20 -20 -20 -20 -20 -20 -20 -20 -20 -20 -20 -20 -20 -20 -20 -20 -20 -20 -20 -20 -20 -20 -20 -20 -20 -20 -20 -20 -20 -20 -20 -20 -20 -20 -20 -20 -20 -20 -20 -20
-5 -20 -20 -20 -20 -20 -20 -20 -20 -20 -20 -20 -20 -20 -20 -20 -20 -20 -20 -20 -20 -20 -20 -20 -20 -20 -20 -20 -20 -20 -20 -20 -20 -20 -20 -20 -20 -20 -20 -20 -20 -20 -20
-20 -10 -20 -20 -20 -20 -20 -20 -20 -20 -20 -20 -20 -20 -20 -20 -20 -20 -20 -20 -20 -20 -20 -20 -20 -20 -20 -20 -20 -20 -20 -20 -20 -20 -20 -20 -20 -20 -20 -20 -20 -20 -20
-20 -18 -7 -20 -20 -20 -20 -20 -20 -20 -20 -20 -20 -20 -20 -20 -20 -20 -20 -20 -20 -20 -20 -20 -20 -20 -20 -20 -20 -20 -20 -20 -20 -20 -20 -20 -20 -20 -20 -20 -20 -20 -20
-7 -20 -20 -2 -20 -20 -20 -20 -20 -20 -20 -20 -20 -20 -20 -20 -20 -20 -20 -20 -20 -20 -20 -20 -20 -20 -20 -20 -20 -20 -20 -20 -20 -20 -20 -20 -20 -20 -20 -20 -20 -20 -20
5 2 -20 -20 -16 -20 -20 -20 -20 -20 -20 -20 -20 -20 -20 -20 -20 -20 -20 -20 -20 -20 -20 -20 -20 -20 -20 -20 -20 -20 -20 -20 -20 -20 -20 -20 -20 -20 -20 -20 -20 -20 -20
-20 -14 -16 -4 -20 -3 -20 -20 -17 -10 -3 -0 3 3 4 -1 -12 -18 -20 -20 -20 -20 -20 -20 -20 -20 -20 -20 -20 -20 -20 -20 -20 -20 -20 -20 -20 -20 -20 -20 -20 -20 -20
-20 -20 -20 -20 -19 -10 -20 -20 -15 -13 -19 -13 -18 -20 -20 -20 -20 -20 -20 -20 -20 -20 -20 -20 -20 -20 -20 -20 -20 -20 -20 -20 -20 -20 -20 -20 -20 -20 -20 -20 -20 -20 -20
-20 -20 -20 -20 -20 -20 -11 -20 -20 -20 -20 -20 -20 -20 -20 -20 -20 -20 -20 -20 -20 -20 -20 -20 -20 -20 -20 -20 -20 -20 -20 -20 -20 -20 -20 -20 -20 -20 -20 -20 -20 -9 -3
-20 -20 -20 -20 -20 -20 -20 -20 -20 -20 -20 -20 -20 -20 -20 -20 -20 -20 -20 -20 -20 -20 -20 -20 -20 -20 -20 -20 -20 -20 -20 -20 -20 -20 -20 -20 -20 -20 -20 -20 -20 -20 -20
-20 -20 -20 -20 -20 -20 -20 -20 -20 -20 -20 -20 -20 -20 -20 -20 -20 -20 -20 -20 -20 -20 -20 -20 -20 -20 -20 -20 -20 -20 -20 -20 -20 -20 -20 -20 -20 -20 -20 -20 -20 -9 -12
-20 -20 -20 -20 -20 -20 -20 -20 -20 -20 -20 -20 -20 -20 -20 -20 -20 -20 -20 -20 -20 -20 -20 -20 -20 -20 -20 -20 -20 -20 -20 -20 -20 -20 -20 -20 -20 -20 -17 -14 -3 -20 -16
-20 -20 -20 -20 -20 -20 -20 -20 -20 -20 -20 -20 -20 -20 -20 -20 -20 -20 -20 -20 -20 -20 -20 -20 -20 -20 -20 -20 -20 -20 -20 -7 -5 -20 -20 -20 -20 -7 -17 1 11 2 -9
-20 -20 -20 -20 -20 -20 -20 -20 -20 -20 -20 -20 -20 -20 -20 -20 -20 -20 -20 -20 -20 -20 -20 -20 -20 -20 -20 -20 -20 -20 -17 -4 -20 -17 -20 -20 -16 -3 8 9 -15 -12 -3
-20 -20 -20 -20 -20 -20 -20 -20 -20 -20 -20 -20 -20 -20 -20 -20 -20 -20 -20 -20 -20 -20 -20 -20 -20 -20 -20 -20 -20 -20 -20 -20 -18 -20 -20 -20 -5 -2 4 -10 -7 -12 -9
-20 -20 -20 -20 -20 -20 -20 -20 -20 -20 -20 -20 -20 -20 -20 -20 -20 -20 -20 -20 -20 -20 -20 -20 -20 -20 -20 -20 -20 -10 -8 -20 -20 -20 -20 -19 -3 -2 -7 -4 -3 -18 -20
-20 -14 -4 -5 -18 -20 -20 -4 -20 -20 -20 -20 -20 -20 -20 -17 -20 -20 -20 -20 -20 -20 -20 -20 -20 -20 -20 -20 -13 1 -20 -9 -20 -20 -20 -20 -20 -20 -20 -20 -20 -20 -5
-20 -5 -0 -6 -6 -13 -6 -20 -20 -20 -20 -20 -20 -20 -20 -20 -20 -20 -20 -20 -20 -20 -20 -20 -20 -20 -20 -20 -20 -20 -20 -20 -20 -20 -20 -20 -20 -20 -20 -20 -20 -20 -20
-18 -20 -20 -6 -20 -18 -20 -20 -20 -14 -2 -2 -20 -5 -5 -20 -20 -20 -20 -20 -20 -20 -20 -20 -20 -20 -20 -20 -20 -20 -20 -20 -20 -20 -20 -20 -20 -20 -20 -20 -20 -20 -20
Wind_Speed
10 11 12 11 10 9 9 7 7 7 4 4 4 3 3 3 5 5 6 6 5 6 6 4 4 5 5 5 6 4 5 3 5 5 3 5 6 7 6 5 5 6 5
10 11 12 12 11 10 9 8 7 6 3 2 3 3 3 4 5 4 5 6 6 6 4 5 4 5 3 6 6 6 4 2 4 4 3 2 3 3 3 4 5 6 5
7 11 10 12 11 10 10 8 7 6 4 5 4 4 4 3 4 3 4 5 5 5 6 6 4 5 4 4 5 6 6 4 2 5 3 2 1 3 2 3 3 4 4
8 9 12 2 8 7 9 8 7 6 6 3 3 3 1 4 4 4 3 4 5 5 5 5 4 4 4 4 4 4 4 5 3 2 3 3 3 3 2 1 2 3 4
8 10 12 8 8 3 6 7 7 6 5 3 3 2 4 5 3 3 3 4 4 4 5 5 4 5 4 4 4 4 4 3 3 3 3 3 2 2 2 3 2 4 2
9 9 8 11 7 5 5 7 4 7 5 4 4 4 4 4 4 3 3 3 2 3 4 4 4 4 3 4 4 4 3 4 3 3 3 3 3 3 3 3 4 5 5
9 7 11 12 10 10 8 7 7 6 4 3 5 4 5 4 4 3 3 2 2 2 4 3 4 3 4 4 4 3 3 3 4 4 3 2 3 3 3 4 5 4 4
11 7 6 11 9 8 9 8 7 7 5 4 3 3 3 2 3 3 2 3 2 2 3 3 3 3 3 3 3 3 2 3 3 4 4 3 3 3 4 4 5 4 4
11 7 4 3 8 9 7 6 6 5 4 4 3 2 2 2 2 2 2 1 2 1 2 3 3 4 4 4 4 3 4 3 4 4 4 4 4 4 4 4 4 4 4
12 9 3 2 6 7 7 6 5 5 4 4 3 2 1 1 1 1 1 1 1 1 2 3 3 3 3 4 4 4 3 4 4 3 4 5 4 4 4 4 5 5 6
12 9 7 4 5 6 5 5 5 5 4 4 4 4 4 4 3 2 1 1 1 1 2 3 3 3 3 3 4 5 5 6 6 5 6 6 6 5 5 4 5 5 6
11 10 8 7 5 4 4 3 3 4 5 5 6 5 5 5 5 4 4 3 3 2 3 3 3 3 4 4 5 5 6 7 7 7 7 8 6 7 7 6 7 7 8
11 10 10 10 8 6 3 1 2 4 4 6 6 6 6 6 6 5 5 4 4 3 3 3 3 4 4 4 5 6 6 7 8 8 8 8 8 8 6 7 7 6 7
9 9 9 8 7 5 6 5 4 3 3 5 6 6 7 7 6 6 6 5 4 4 4 4 3 4 4 5 5 6 6 7 8 8 8 9 9 9 9 8 8 8 8
7 7 7 7 6 6 5 3 4 3 3 5 6 7 7 7 6 6 5 5 5 5 4 4 4 4 4 4 4 6 7 8 9 9 9 9 10 14 13 8 8 9 8
4 7 9 8 7 5 6 5 5 4 3 5 6 6 6 7 7 6 6 5 6 5 4 5 5 5 4 4 7 8 8 9 9 9 9 9 11 12 17 18 20 17 11
6 11 12 10 8 7 5 6 7 6 4 5 5 5 6 7 7 7 6 6 6 5 5 5 5 5 5 7 8 10 8 9 9 9 9 9 8 10 9 13 18 18 21
12 15 13 12 11 10 9 7 6 7 6 6 6 6 7 8 8 8 7 6 6 6 5 6 5 5 5 7 9 11 9 9 10 9 9 9 10 10 11 11 11 11 13
14 13 14 15 13 10 11 10 9 8 8 8 8 7 7 8 8 9 9 8 7 7 7 5 5 5 5 8 9 9 8 9 9 9 9 9 10 14 16 11 12 12 12
12 14 15 15 14 12 11 11 11 11 10 9 8 7 7 9 10 10 10 9 7 7 6 6 6 8 5 8 9 9 6 7 6 8 10 14 11 15 14 11 10 11 11
15 15 14 14 14 14 13 13 12 12 10 10 9 9 7 9 10 9 9 9 8 7 7 6 5 5 5 6 9 11 6 4 5 6 6 7 14 14 16 16 9 10 13
15 15 14 14 14 14 13 14 14 12 10 10 10 10 9 7 7 10 9 9 8 8 7 6 5 6 6 8 9 9 10 9 3 5 4 6 14 16 15 12 13 17 15
14 14 14 15 14 14 14 14 13 13 12 12 11 11 10 8 9 9 10 8 9 8 7 6 6 6 5 4 9 8 8 8 4 2 7 12 12 12 9 11 13 13 7
13 13 14 14 14 14 14 14 13 14 13 13 13 10 11 10 9 8 8 9 9 8 7 7 6 5 4 4 4 3 1 6 3 4 3 6 6 6 6 6 6 5 7
11 11 12 13 15 15 15 14 14 14 13 13 12 11 9 10 9 9 8 9 10 11 8 7 6 5 5 4 3 1 1 1 2 1 1 1 2 3 3 4 4 5 5
10 10 11 12 13 13 14 14 13 13 13 13 10 9 8 7 7 7 7 18 16 19 17 14 8 5 7 5 2 1 2 2 2 1 1 1 2 3 4 5 6 5 8
Wind_Direction
179 176 165 162 157 151 147 147 142 136 143 146 126 127 96 90 83 72 61 52 42 36 40 39 30 21 26 20 4 347 343 6 350 281 258 237 234 244 249 257 260 263 252
170 173 170 171 171 162 158 151 142 146 141 127 76 76 102 68 75 77 66 46 48 39 52 39 36 24 18 28 19 10 341 14 8 337 284 309 163 211 236 254 257 259 250
229 181 174 182 177 171 164 155 146 138 122 110 116 108 110 133 139 114 77 53 50 44 34 40 28 34 19 35 27 8 9 351 32 18 337 302 16 321 108 229 256 344 306
300 220 169 224 165 179 154 144 138 133 128 141 150 180 132 127 72 80 78 81 51 54 36 32 26 39 21 25 25 24 356 344 7 311 16 357 343 349 317 112 69 348 322
305 280 163 186 164 121 143 135 140 125 107 99 99 104 93 96 102 98 99 81 79 50 47 21 22 32 22 23 14 7 9 8 334 354 343 333 322 286 294 310 6 349 342
317 272 209 159 136 126 109 141 116 112 92 88 72 87 104 112 124 115 112 82 73 65 42 27 23 23 14 14 359 347 2 354 344 330 332 329 336 14 326 301 318 317 292
343 284 218 160 165 167 149 138 129 127 107 72 94 69 80 84 88 85 68 71 81 64 55 16 11 8 5 352 341 342 332 338 324 312 317 313 303 326 303 297 284 282 306
3 344 218 155 173 169 153 138 139 138 138 117 93 98 86 88 85 76 70 69 43 39 26 12 358 359 348 341 318 306 298 288 271 286 302 306 302 294 289 289 310 300 262
14 11 340 178 163 154 141 138 133 131 142 142 131 116 109 92 105 99 83 74 73 26 21 354 347 349 338 333 323 300 299 305 299 300 293 288 285 281 285 281 275 280 294
16 20 27 146 141 142 135 137 144 155 164 164 174 180 230 216 205 184 174 107 62 328 343 322 340 333 328 318 309 300 307 302 300 284 285 273 274 277 275 273 269 265 265
14 18 37 81 133 142 145 155 166 167 178 185 192 200 204 225 227 238 232 222 224 275 283 304 323 317 314 303 299 299 288 283 283 284 272 271 275 275 269 258 260 261 259
28 28 32 55 78 110 139 166 189 198 202 192 203 201 208 211 223 222 215 218 234 239 274 294 295 297 300 297 294 293 305 293 287 282 275 271 262 259 258 259 260 261 269
27 35 39 38 34 38 51 91 219 221 202 198 205 209 207 205 213 216 209 212 221 237 257 258 273 286 289 291 292 290 285 280 277 276 275 274 273 270 266 265 270 273 275
23 15 14 15 14 22 8 7 334 261 237 209 214 218 215 213 208 208 207 202 211 221 241 251 269 277 288 291 286 279 275 275 273 273 274 275 272 271 273 269 268 271 273
11 15 4 350 343 342 339 332 302 299 251 241 235 234 222 207 200 197 193 193 212 219 226 245 258 267 273 262 311 302 292 285 281 279 276 268 266 274 276 278 282 283 280
339 354 344 331 324 315 315 309 291 278 257 245 243 231 218 208 199 190 191 198 209 205 223 241 241 254 261 292 290 289 284 288 289 286 285 285 283 274 272 269 269 269 274
309 321 325 313 302 299 288 293 295 289 271 259 247 237 217 208 199 187 187 195 204 208 211 228 237 255 278 290 296 297 289 290 290 287 288 289 287 295 286 284 281 276 274
319 316 310 303 291 297 296 291 285 277 256 258 249 223 215 214 197 188 191 194 198 205 210 223 223 248 271 287 299 299 294 286 284 286 285 286 291 292 294 297 297 293 284
308 306 303 296 284 285 296 296 298 285 270 252 245 233 207 209 198 196 194 195 199 200 207 209 206 225 256 277 289 299 295 287 290 295 292 290 289 289 293 296 293 287 280
310 310 318 318 304 293 300 297 294 291 285 279 260 232 203 206 207 201 195 192 196 204 204 206 206 222 235 272 284 287 277 284 289 296 291 290 290 294 298 291 287 289 296
315 310 314 301 297 296 299 292 293 286 290 292 286 271 201 208 214 204 197 185 185 202 203 206 216 213 228 249 271 276 272 283 294 294 301 300 301 299 296 299 298 291 298
314 312 310 305 302 299 294 290 286 291 291 287 281 275 254 217 211 202 194 186 181 193 191 206 220 218 211 247 258 272 280 293 306 299 301 304 292 293 299 303 299 306 309
314 313 311 305 307 304 296 288 292 298 296 291 287 281 266 233 217 196 193 184 186 191 193 198 212 220 205 213 250 265 274 295 280 272 296 308 304 311 318 310 312 320 315
313 310 309 304 304 303 302 299 302 301 292 285 278 277 268 248 214 203 196 196 187 194 195 200 206 209 205 217 230 227 253 286 324 346 317 309 320 322 333 337 330 322 318
304 305 308 303 298 304 301 303 299 296 290 283 276 269 263 253 228 211 204 203 195 190 191 197 199 197 207 200 229 239 286 321 304 325 262 330 331 336 332 328 329 326 321
294 302 297 298 299 299 298 298 295 292 289 282 275 265 253 238 230 214 211 213 208 200 202 199 188 194 208 211 200 202 232 308 329 182 21 349 336 333 330 333 329 329 335